Wind_Speed
25 31 32 31 30 32 32 31 40 42 45 44 40 45 43 45 37 42 47 49 46 43 39 38 43 47 49 47 47 47 45 40 42 36 34 26 19 17 16 16 16 15 13
23 21 30 28 29 29 33 30 37 46 51 50 39 47 46 45 43 47 51 51 48 43 40 41 40 44 46 49 49 49 40 41 40 23 29 4 9 14 13 12 13 14 13
21 21 21 24 27 28 29 28 37 46 42 53 44 44 44 44 38 41 43 47 49 44 40 43 44 45 49 46 47 49 48 37 27 38 10 5 4 12 10 11 11 11 12
19 18 20 24 26 30 27 25 29 39 59 49 45 43 44 41 41 45 44 48 50 48 45 44 47 47 49 48 49 50 44 43 38 20 9 7 21 4 4 10 11 9 10
17 20 21 29 30 30 30 28 24 41 38 56 51 47 47 42 44 42 46 46 45 46 41 42 43 47 50 51 49 48 43 43 38 17 15 19 22 15 8 3 11 13 11
22 20 26 30 26 27 31 31 29 29 32 42 42 53 47 42 43 41 43 41 41 43 43 42 44 47 50 51 49 49 44 44 40 18 23 28 12 14 9 6 18 15 13
20 20 19 14 22 28 29 27 27 25 36 29 50 48 50 46 49 49 46 45 41 41 42 45 46 48 48 49 48 47 43 41 37 25 22 22 11 22 16 27 16 7 13
19 19 18 15 18 31 25 26 25 23 28 37 42 41 49 50 45 48 46 49 47 45 46 43 47 47 44 47 46 45 42 39 36 25 20 17 12 17 22 25 29 5 3
20 18 18 18 18 28 26 25 22 24 29 35 38 36 42 47 44 44 45 44 44 44 44 43 46 47 45 46 45 45 43 38 35 23 20 16 21 15 18 31 31 19 4
20 16 15 14 17 26 24 29 22 27 33 34 37 36 43 39 50 48 49 43 42 43 45 43 48 48 46 46 44 44 42 37 32 28 24 21 21 19 17 25 15 8 11
17 17 15 17 19 22 23 25 23 26 30 33 34 35 36 44 43 39 40 45 41 43 44 44 46 48 47 46 44 42 40 37 34 31 28 25 23 21 22 24 15 12 9
19 15 12 3 14 20 17 22 22 23 27 32 29 40 35 37 39 41 38 40 47 46 43 44 46 45 46 45 44 44 41 39 37 33 30 27 24 21 21 21 17 14 12
17 17 18 12 9 11 17 17 23 26 28 32 33 37 40 36 32 39 41 39 40 44 39 39 44 47 46 45 44 44 44 40 37 34 31 29 26 22 20 19 17 15 13
17 18 17 16 14 12 17 23 22 28 30 32 31 38 37 35 34 36 39 34 37 44 39 38 39 42 44 43 42 40 41 39 37 36 32 29 26 23 22 20 18 17 16
26 24 19 14 13 12 18 24 26 28 31 31 28 29 34 39 43 42 41 44 36 36 42 37 39 42 41 40 39 39 40 39 36 32 30 28 25 22 21 20 22 21 20
23 20 17 16 13 14 4 22 25 27 36 30 30 27 34 32 37 41 44 42 44 43 44 44 46 43 37 36 39 40 39 39 36 32 28 25 23 21 19 18 17 19 22
24 24 20 16 14 16 13 11 26 32 32 29 33 32 29 32 32 33 36 37 40 41 38 40 42 39 35 35 37 36 40 38 34 33 30 28 25 24 22 19 17 16 15
23 19 16 19 21 18 10 16 28 29 32 30 30 29 31 30 29 31 30 32 36 37 37 36 38 39 34 34 37 39 36 34 34 32 33 32 30 28 27 26 23 19 15
18 23 28 24 21 21 12 20 20 28 34 30 28 27 30 29 31 28 31 32 33 30 32 36 39 39 38 36 36 35 33 33 33 32 33 32 31 29 27 27 27 22 18
31 25 33 28 25 30 15 23 22 21 23 29 30 34 35 33 31 31 31 32 33 31 33 35 35 35 37 35 38 36 34 34 33 31 29 28 29 29 27 27 29 28 25
33 36 35 29 28 28 20 20 21 17 22 28 30 30 31 31 31 31 32 33 31 28 27 29 31 34 38 38 38 37 36 37 34 32 29 26 25 28 29 25 26 27 28
37 40 31 29 30 29 22 20 21 17 25 31 30 29 28 26 27 29 28 28 33 31 29 27 25 29 32 36 37 36 35 35 36 34 31 28 27 28 29 25 23 25 26
31 32 29 26 27 29 28 21 16 20 26 29 27 26 25 25 28 31 31 29 29 31 27 26 24 25 31 33 35 28 26 31 31 32 30 28 29 27 25 23 24 29 28
26 30 28 25 28 30 28 25 15 14 23 26 27 28 28 27 27 27 29 29 27 25 26 26 25 28 30 32 33 31 28 28 26 27 32 32 28 24 26 28 25 27 27
27 27 23 24 27 28 30 27 18 12 22 24 24 24 25 27 26 24 25 28 25 28 31 27 33 33 29 33 36 36 34 32 35 39 37 33 32 32 31 27 28 26 23
26 27 27 28 30 28 29 29 21 13 18 21 20 22 23 22 24 23 19 13 16 18 20 25 29 25 29 33 33 33 33 36 43 38 34 31 34 36 32 32 31 25 21
Wind_Direction
280 280 282 286 290 292 300 227 196 180 173 172 171 164 168 168 159 169 167 166 165 161 157 154 152 156 157 154 153 148 143 135 134 116 106 102 106 110 117 123 125 123 112
280 273 274 273 277 285 290 250 207 189 181 171 177 167 166 169 162 172 175 172 163 162 158 157 155 157 157 157 155 152 141 139 144 137 120 100 91 109 118 124 124 122 127
273 269 269 264 269 275 286 276 215 196 198 174 168 168 168 167 159 163 163 166 165 162 162 161 160 162 164 159 157 159 155 154 158 149 136 127 160 138 135 136 136 131 127
315 314 302 259 259 270 280 298 246 215 211 163 162 172 170 168 164 162 164 165 168 164 165 163 165 165 166 164 166 169 164 163 163 181 178 169 147 150 139 158 154 146 134
305 297 291 277 246 258 275 281 281 225 222 184 169 173 167 169 160 161 158 164 169 165 163 163 165 168 171 172 172 174 174 173 170 171 167 149 149 134 140 149 160 153 146
311 302 294 294 248 246 262 271 279 246 210 185 181 171 175 165 161 159 159 158 162 163 166 167 169 172 176 180 180 182 181 178 179 173 167 156 166 166 145 119 146 147 149
306 299 298 298 259 259 243 260 269 256 201 204 180 180 166 163 166 163 163 159 160 164 169 169 173 176 182 184 186 186 185 183 181 177 172 168 166 165 153 140 146 138 151
299 289 280 273 263 249 239 254 250 237 201 196 174 180 167 170 164 165 166 167 167 169 170 170 174 183 187 187 189 188 188 186 186 180 178 177 181 174 165 155 145 102 122
305 294 286 271 250 233 232 243 241 207 195 183 176 174 171 169 163 164 167 169 169 166 168 170 175 187 190 189 189 189 189 189 189 182 174 173 164 173 169 167 162 137 148
310 301 287 282 232 215 226 239 238 195 189 185 177 170 165 169 164 163 166 165 168 169 167 167 175 182 188 188 189 190 190 189 186 184 176 175 166 165 168 168 170 175 142
319 315 306 280 193 209 224 239 214 184 178 175 166 162 161 164 164 164 160 159 164 170 169 166 170 177 182 187 188 190 189 187 182 183 183 177 173 168 167 172 170 165 148
326 316 322 9 181 203 218 239 183 171 180 183 174 154 158 158 167 161 164 162 165 171 169 166 168 176 182 188 190 189 188 186 184 184 185 179 176 173 171 181 187 179 170
333 349 8 1 342 220 223 215 171 168 159 155 156 153 153 155 156 155 158 166 163 166 167 164 165 175 184 188 193 191 190 189 186 188 189 188 184 180 178 179 184 181 173
354 2 358 358 342 296 188 163 167 163 153 149 155 150 147 148 141 148 152 159 161 162 162 163 163 172 184 188 189 188 191 191 191 195 196 194 192 193 188 182 182 180 171
3 359 354 343 338 353 153 157 165 151 142 139 143 144 150 152 151 150 153 158 154 154 153 153 164 175 187 190 187 191 193 192 196 197 198 202 202 202 199 190 186 184 173
353 341 345 352 355 357 195 159 152 143 140 145 141 143 142 142 152 156 161 166 166 169 173 172 175 178 180 188 191 192 195 195 193 189 195 197 198 197 199 196 199 196 183
348 345 343 343 338 337 342 166 141 138 133 138 137 135 135 140 147 154 151 154 160 168 170 171 175 179 185 193 198 201 199 193 190 191 187 188 191 194 184 178 180 187 194
343 331 335 337 334 335 347 141 140 130 128 128 130 141 145 138 145 148 148 149 160 165 166 167 170 175 185 192 196 199 197 191 192 192 191 190 184 186 181 173 170 173 177
346 347 340 328 329 351 8 130 129 133 133 136 135 142 144 145 150 147 152 158 158 162 169 172 176 177 183 187 189 192 189 188 188 189 192 190 183 182 184 174 167 160 152
342 350 342 353 3 2 11 129 122 127 133 140 148 152 158 163 161 159 158 164 169 165 172 180 185 183 181 187 190 193 191 185 180 182 186 191 188 179 185 185 174 158 154
342 351 356 0 1 357 41 82 104 109 130 130 139 157 164 170 169 164 158 158 157 158 159 167 180 189 192 185 189 190 192 189 179 178 177 182 189 183 186 191 183 176 162
348 350 355 356 1 10 27 48 57 107 132 140 145 152 158 161 160 159 154 154 151 148 150 154 157 172 179 181 185 189 196 192 184 177 177 176 185 189 187 184 179 169 162
344 345 350 356 9 17 28 36 44 120 137 143 145 149 157 162 165 166 159 152 151 148 147 148 149 161 172 176 183 187 188 189 181 177 172 175 182 180 178 177 172 166 162
344 346 352 1 12 13 23 39 59 123 141 138 141 148 154 158 163 162 161 159 156 150 149 152 148 150 155 162 169 172 177 182 176 163 158 157 158 162 154 145 159 164 166
347 350 356 6 10 11 20 38 55 110 123 129 135 140 145 148 148 154 163 164 167 174 166 163 160 156 160 169 173 174 171 169 163 149 143 142 142 143 154 162 160 162 165
353 356 359 7 6 12 18 34 49 88 121 121 127 135 140 142 141 140 126 141 158 171 178 174 171 166 168 162 165 165 163 161 159 151 149 150 152 160 166 163 163 167 179
Height
718 722 723 723 722 718 715 710 713 713 720 729 736 743 752 764 773 782 789 799 807 815 821 826 831 835 841 850 858 864 869 878 882 885 898 904 909 911 912 914 915 916 917
716 717 715 717 714 714 709 706 706 709 708 717 731 735 746 758 765 776 784 792 801 811 818 824 829 835 841 847 854 860 868 876 880 885 892 905 914 914 916 917 917 918 919
719 710 704 709 708 709 705 704 702 700 703 707 720 732 744 753 759 770 781 789 796 806 814 821 827 834 841 846 851 856 861 869 878 880 882 900 907 912 917 918 919 920 921
725 714 704 701 704 699 700 701 699 697 703 673 702 721 730 739 748 759 773 784 793 800 809 817 824 832 838 845 849 855 860 864 870 877 878 881 884 900 916 919 920 921 922
728 715 703 689 695 697 697 697 697 690 685 681 696 715 721 735 746 755 765 778 790 797 807 814 822 829 835 843 846 852 858 864 867 871 875 879 885 889 896 912 917 920 922
717 708 698 684 686 691 692 696 692 685 685 680 689 704 720 727 740 748 760 773 784 794 805 812 819 825 832 840 844 850 856 861 867 871 873 875 879 884 888 901 912 916 922
714 704 694 683 673 681 688 688 684 681 684 687 691 703 711 714 730 741 752 766 778 787 799 806 813 822 829 838 844 850 855 861 866 870 873 876 878 881 884 892 904 912 920
709 699 690 683 675 676 677 677 678 677 679 686 681 700 703 723 730 736 747 758 768 778 791 802 809 818 828 835 842 849 854 859 865 869 872 875 877 880 880 885 893 910 916
699 688 678 672 668 669 670 671 672 675 677 682 689 697 709 718 718 734 749 757 764 774 788 798 805 814 825 833 840 846 851 857 863 869 872 874 877 880 882 884 888 892 910
688 677 669 660 658 661 663 664 667 669 675 683 689 695 702 714 713 726 740 748 762 771 783 793 800 810 820 830 838 844 850 855 861 866 870 873 876 879 882 885 888 890 892
681 669 657 647 647 653 658 659 661 665 671 677 683 694 700 709 718 720 734 738 755 771 780 788 796 806 813 825 835 841 849 853 858 864 867 871 875 878 881 885 887 889 892
682 670 655 639 642 649 654 656 657 662 669 677 683 689 702 705 717 720 732 744 753 769 777 784 791 803 811 820 831 837 845 849 856 861 866 869 874 878 881 884 887 889 891
684 663 650 651 651 647 650 652 657 665 669 675 683 688 696 708 713 722 732 749 753 761 775 781 787 798 808 818 827 836 841 847 853 859 863 867 872 877 881 883 886 890 891
686 673 663 655 652 644 645 650 659 664 670 676 684 689 695 706 713 722 729 746 754 759 770 779 787 796 808 817 824 833 840 846 851 856 861 865 869 875 878 881 884 889 891
680 676 670 667 658 644 643 650 659 664 670 676 685 686 699 708 716 726 734 744 754 759 766 778 788 797 809 816 823 830 837 842 849 855 860 864 869 873 876 877 882 886 888
694 686 678 669 663 658 650 651 657 664 668 680 687 695 701 707 717 725 733 746 755 761 769 772 784 792 804 814 821 827 833 838 845 850 857 863 868 872 874 878 881 884 885
701 689 682 675 669 664 657 654 659 666 673 685 689 696 703 712 719 728 735 742 748 758 767 774 780 789 801 808 819 822 832 838 841 848 853 859 864 868 872 876 881 885 888
713 706 693 678 671 666 661 658 663 668 677 686 693 702 708 712 722 729 734 741 750 758 765 772 780 790 799 811 819 827 832 835 839 845 851 855 859 864 867 871 877 883 888
717 702 696 686 675 662 657 662 665 672 680 690 697 705 710 717 724 731 738 745 752 760 766 773 782 789 800 809 816 822 828 833 839 845 850 854 858 863 866 869 874 880 886
718 712 694 679 674 666 662 664 673 679 687 693 702 708 713 721 729 735 740 747 754 760 765 774 780 786 794 804 810 818 824 832 838 844 850 853 857 861 866 868 871 877 883
727 719 698 693 686 676 667 674 679 687 693 697 702 711 714 724 728 734 741 748 754 762 770 776 781 787 794 800 808 815 822 828 835 839 846 852 858 862 867 870 872 876 882
728 716 713 705 696 689 682 680 685 693 699 703 710 716 719 725 730 736 744 750 752 761 770 777 782 789 794 799 807 813 820 826 829 835 842 849 857 863 867 871 874 879 884
745 736 725 716 708 701 696 694 697 699 702 707 712 716 722 728 732 739 744 749 753 760 769 776 783 789 795 800 806 812 818 826 831 835 840 848 857 863 868 872 876 879 884
754 742 732 724 717 713 708 704 704 705 708 712 717 722 727 732 735 739 742 746 754 761 766 775 780 787 793 799 805 812 819 826 832 837 845 852 858 864 869 874 877 882 887
759 751 744 735 729 723 716 713 711 710 711 715 719 724 729 733 737 743 749 753 757 760 765 770 775 783 791 796 802 806 813 822 828 835 845 852 857 867 869 874 878 884 888
767 757 748 740 735 730 725 722 719 718 717 720 724 727 731 736 739 745 750 755 758 763 768 774 778 785 790 794 801 807 815 823 827 835 843 850 854 861 869 874 878 882 887